x

South Brooks (46132) Wave Buoy

1:00 - Sun 23rd Apr 2017 All times are PDT. -7 hours from GMT.

  • Sig Wave height 9.8ft
  • Peak Period 12s
  • Wind
  • Sea Temp 49°f
  • Luft Temp 48°f
  • Sea Pressure 1009.9mb
  • South Brooks
  • South Brooks

More Historic Weather Station data

Upgrade to MSW Pro to gain access to the past 30 days of data for over 8000 Wavebouys and Weather Stations around the globe.

Join Pro

Comparision Forecast

View Surf forecast
   
So 04/23 1:00 10ft 12s  -  4 mph 1009.9mb 49f 48f
12:00 10ft 12s  -  4 mph 1009.3mb 49f 48f
Sa 04/22 11:00 10ft 12s  -  4 mph 1008.6mb 49f 47f
10:00 10ft 12s  -  4 mph 1007.4mb 49f 48f
9:00 10.5ft 12s  -  7 mph 1006.1mb 49f 48f
8:00 10ft 12s  -  2 mph 1005.3mb 49f 48f
7:00 10ft 12s  -  2 mph 1005.1mb 49f 49f
6:00 9.5ft 12s  -  7 mph 1004.9mb 49f 49f
5:00 10ft 14s  -  9 mph 1004.9mb 49f 49f
4:00 10.5ft 13s  -  9 mph 1005.1mb 49f 49f
3:00 10ft 13s  -  9 mph 1005.4mb 49f 49f
2:00 10ft 14s  -  9 mph 1005.8mb 49f 50f
1:00 10.5ft 12s  -  4 mph 1005.8mb 49f 49f
12:00 10ft 13s  -  4 mph 1004.6mb 49f 51f
11:00 11.5ft 12s  -  2 mph 1004.5mb 49f 51f
9:00 11ft 12s  -  mph 1004.4mb 49f 52f
8:00 11ft 12s  -  mph 1004.5mb 49f 53f
7:00 9.5ft 12s  -  2 mph 1004.8mb 49f 52f
6:00 6.5ft 13s  -  2 mph 1005.2mb 49f 52f
5:00 6ft 13s  -  mph 1005.8mb 49f 53f
4:00 5.5ft 13s  -  2 mph 1006.8mb 49f 53f
3:00 5ft 8s  -  2 mph 1008mb 49f 52f
2:00 5ft 8s  -  2 mph 1009.4mb 49f 51f
1:00 5ft 6s  -  2 mph 1010.6mb 49f 51f
12:00 5ft 7s  -  4 mph 1011.7mb 49f 51f
Fr 04/21 11:00 5ft 7s  -  2 mph 1012.9mb 49f 51f
10:00 5ft 6s  -  2 mph 1013.9mb 49f 51f
9:00 5ft 7s  -  2 mph 1014.9mb 49f 50f
8:00 5ft 7s  -  mph 1016.5mb 49f 50f
7:00 5ft 7s  -  2 mph 1017.8mb 49f 49f
6:00 5ft 7s  -  mph 1019mb 49f 50f
5:00 5.5ft 6s  -  mph 1020.3mb 49f 50f
4:00 5.5ft 7s  -  2 mph 1021mb 49f 50f
3:00 6ft 6s  -  2 mph 1022.2mb 49f 50f
2:00 6ft 9s  -  7 mph 1023.4mb 49f 50f
1:00 6ft 10s  -  4 mph 1024.4mb 49f 49f
12:00 6ft 10s  -  4 mph 1025mb 49f 49f
11:00 6ft 8s  -  4 mph 1025.4mb 49f 50f
10:00 6ft 10s  -  2 mph 1025.5mb 49f 49f
9:00 6ft 9s  -  2 mph 1026mb 49f 50f
8:00 6ft 10s  -  2 mph 1026.8mb 49f 50f
7:00 6ft 9s  -  mph 1026.9mb 49f 50f
6:00 6ft 9s  -  2 mph 1026.8mb 49f 49f
5:00 6ft 11s  -  2 mph 1027.1mb 49f 50f
4:00 7ft 10s  -  mph 1027.1mb 49f 50f
3:00 7ft 10s  -  mph 1027.3mb 49f 49f
2:00 7ft 10s  -  mph 1027.9mb 49f 49f
1:00 7ft 8s  -  mph 1027.8mb 49f 49f
12:00 7ft 11s  -  mph 1027.3mb 49f 49f
Do 04/20 11:00 7ft 12s  -  mph 1027.1mb 49f 49f
10:00 6.5ft 11s  -  mph 1026.8mb 49f 49f
9:00 7.5ft 8s  -  2 mph 1026.2mb 49f 49f
8:00 7ft 12s  -  2 mph 1025.6mb 49f 49f
7:00 7ft 12s  -  mph 1025.2mb 49f 50f
6:00 7ft 10s  -  mph 1024.9mb 49f 50f
5:00 7ft 9s  -  mph 1024.5mb 49f 50f
4:00 8ft 8s  -  mph 1024mb 49f 50f
3:00 7ft 10s  -  mph 1023.9mb 49f 50f
2:00 8ft 8s  -  mph 1023.3mb 49f 49f
1:00 8ft 8s  -  mph 1022.4mb 49f 49f
12:00 8ft 9s  -  mph 1021.8mb 49f 49f
11:00 8ft 9s  -  2 mph 1020.8mb 48f 49f
10:00 8ft 9s  -  4 mph 1020.1mb 48f 49f
9:00 8ft 10s  -  mph 1019.2mb 48f 49f
8:00 7.5ft 8s  -  2 mph 1018.3mb 48f 48f
7:00 7ft 8s  -  2 mph 1017.8mb 48f 48f
6:00 7ft 8s  -  2 mph 1017.2mb 48f 48f
5:00 7ft 8s  -  4 mph 1016.5mb 48f 48f
4:00 7.5ft 8s  -  2 mph 1016.1mb 49f 49f
3:00 8ft 8s  -  mph 1015.7mb 49f 49f
2:00 8ft 9s  -  2 mph 1015.3mb 49f 49f
1:00 8ft 8s  -  4 mph 1014.9mb 48f 49f
12:00 8.5ft 8s  -  4 mph 1014.5mb 48f 49f
Mi 04/19 11:00 8ft 7s  -  2 mph 1014mb 48f 49f
10:00 9ft 8s  -  mph 1013.4mb 48f 49f
9:00 9ft 10s  -  4 mph 1012.6mb 48f 49f
8:00 9ft 8s  -  4 mph 1012.2mb 48f 49f
7:00 10ft 8s  -  7 mph 1012mb 48f 49f
6:00 9.5ft 7s  -  4 mph 1011.7mb 48f 49f
5:00 9.5ft 8s  -  4 mph 1011.2mb 48f 49f
4:00 9.5ft 8s 2 11 mph 1011mb 48f 48f